Location: Bingham Park
(42.7275°N, 93.5644°W)
Time: 21:30:09
(UTC+00:00)

Daily predictions for brighter satellites

Satellite Brightness Start Highest point End
(mag) Time Altitude Azimuth Time Altitude Azimuth Time Altitude Azimuth
Envisat 3.4 12:01:09 10° N 12:05:53 40° WNW 12:10:35 10° SW
Cosmos 2098 Rocket 2.6 12:02:37 10° S 12:06:01 79° W 12:10:17 10° N
OE (NEXTSAT) 4.2 12:05:02 28° WNW 12:06:43 88° SSW 12:10:08 10° ESE
Cosmos 1862 3.4 12:02:48 10° S 12:06:44 76° E 12:10:41 10° NNE
FALCON 9 DEB 3.6 12:07:26 27° NW 12:07:50 29° NNW 12:10:24 10° NE
CZ-2C R/B 3.0 12:03:00 10° S 12:08:16 44° W 12:13:28 10° NNW
YAOGAN 6 3.9 12:05:27 10° NNW 12:10:12 16° WSW 12:11:18 10° WSW
Cosmos 1943 Rocket 2.5 12:03:21 10° SW 12:08:45 44° WNW 12:14:10 10° NNE
SL-8 R/B 4.4 12:06:09 20° WNW 12:09:03 42° N 12:13:36 10° ENE
Cosmos 921 Rocket 3.0 12:05:30 10° NNW 12:09:54 86° WSW 12:14:21 10° SSE
Cosmos 1656 Rocket 4.1 12:05:56 10° S 12:11:16 65° ESE 12:16:39 10° NNE
Gbstr 26 Del rocket 3.0 12:09:11 22° WNW 12:11:32 58° SW 12:15:53 10° SE
FALCON 9 DEB 3.9 12:11:48 23° NW 12:12:18 24° NNW 12:14:45 10° NNE
Landsat 5 4.1 12:09:30 10° S 12:13:44 40° W 12:18:01 10° NNW
NOAA 11 4.1 12:08:56 10° N 12:14:25 77° WNW 12:19:52 10° SSW
Meteor 1-31 Rocket 3.5 12:12:17 10° N 12:15:41 30° WNW 12:19:07 10° SW
COSMO-SKYMED 1 3.4 12:12:03 10° SSW 12:15:50 29° W 12:19:32 11° NW
Cosmos 2278 Rocket 4.0 12:16:28 12° NW 12:16:34 12° NW 12:18:36 10° NNW
Cosmos 2344 4.1 12:10:43 12° W 12:17:02 36° NW 12:24:18 10° NNE
Cosmos 1812 2.7 12:13:30 10° NNW 12:17:18 60° W 12:21:05 10° S
Cosmos 1151 Rocket 3.0 12:15:35 10° NNW 12:19:57 68° W 12:24:17 10° S
FALCON 9 DEB 3.5 12:19:16 21° WNW 12:20:37 32° NNW 12:23:17 10° NE
Genesis I 3.3 12:16:56 11° NNW 12:20:49 86° ENE 12:24:53 10° SE
Cosmos 1328 Rocket 3.6 12:16:32 10° N 12:20:58 86° E 12:25:19 10° S
Cosmos 2279 Rocket 3.9 12:17:04 10° N 12:23:15 75° W 12:29:24 10° S
Cosmos 968 Rocket 3.8 12:21:05 10° SW 12:25:58 42° WNW 12:30:52 10° N
Nadezhda 4 Rocket 4.4 12:26:17 10° S 12:32:21 68° E 12:38:31 10° NNE
Cosmos 1634 Rocket 4.4 12:27:20 10° NNW 12:33:07 40° W 12:38:50 10° SSW
DMSP B5D2-2 4.2 12:31:54 10° S 12:37:01 57° W 12:42:10 10° NNW
Cosmos 1867 4.3 12:33:43 10° NW 12:38:40 36° WSW 12:43:34 10° S
IRAS Rocket 4.5 12:33:26 10° S 12:38:47 50° WSW 12:44:08 10° NNW
CZ-2D R/B 4.5 12:35:24 10° NNE 12:39:05 45° E 12:42:43 10° S
Cosmos 1408 Rocket 3.5 12:37:18 10° S 12:41:37 89° ESE 12:45:57 10° N
H-2A R/B 3.4 12:37:50 10° NNE 12:42:32 43° E 12:47:10 10° S
FengYun 1-2 T 4.2 12:39:11 10° NNE 12:44:42 81° WNW 12:50:10 10° SSW
Cosmos 2263 4.2 12:40:51 10° SW 12:46:30 67° WNW 12:52:13 10° NNE
SMAP 3.0 12:42:03 10° NNE 12:46:44 83° WNW 12:51:23 10° SSW
CENTAUR R/B 3.3 12:43:30 10° W 12:48:54 32° NW 12:55:16 10° NNE
NOSS 3-2 (A) 4.5 12:44:29 10° W 12:49:15 25° NNW 12:54:38 10° NNE
PSLV R/B 4.2 12:46:27 10° NNE 12:50:19 71° ESE 12:54:16 10° S
Cosmos 1939 Rocket 3.0 12:49:11 10° N 12:53:03 51° WNW 12:56:50 10° SSW
NOSS 3-2 (C) 4.0 12:48:39 10° WSW 12:53:49 35° NW 12:59:44 10° NNE
Cosmos 1464 Rocket 4.1 23:03:05 10° S 23:09:19 60° E 23:15:35 10° NNE
Cosmos 1697 Rocket 4.0 23:07:15 10° N 23:11:14 19° NE 23:15:12 10° E
Cosmos 1980 Rocket 3.9 23:10:45 10° NNE 23:12:46 12° NE 23:14:46 10° ENE
CZ-2C R/B 2.9 23:08:51 10° SSE 23:13:54 82° ENE 23:18:46 10° N
Cosmos 1656 4.2 23:11:33 10° N 23:16:40 37° ENE 23:21:49 10° SE
SJ 16-02 1.3 23:14:34 10° NNW 23:18:58 81° ENE 23:23:21 10° SSE
CZ-2D R/B 4.2 23:18:17 10° SE 23:21:29 25° ENE 23:24:40 10° NNE
Cosmos 2082 Rocket 4.0 23:20:33 10° ESE 23:22:08 11° E 23:23:43 10° E
Cosmos 1500 Rocket 4.3 23:19:44 10° NNE 23:23:44 31° ENE 23:27:40 10° SE
USA 306 4.2 23:19:57 10° W 23:23:46 31° NNW 23:27:36 10° NE
Okean 3 Rocket 3.9 23:19:33 10° NNW 23:24:06 76° W 23:28:32 10° S
Iridium 2 3.9 23:22:23 10° N 23:26:08 74° W 23:29:51 10° S
ERBS 3.1 23:23:27 10° WSW 23:26:31 42° NW 23:29:36 10° NE
Nadezhda 4 Rocket 4.1 23:20:38 10° N 23:26:52 57° E 23:33:04 10° SSE
COSMOS 2406 4.4 23:23:29 10° SSE 23:27:52 23° E 23:32:16 10° NE
Meteor PRIRODA 4.4 23:28:17 10° S 23:31:53 57° W 23:35:29 10° NNW
PSLV R/B 4.0 23:30:47 10° SE 23:34:13 40° ENE 23:37:42 10° N
Cosmos 1842 Rocket 3.5 23:29:53 10° S 23:34:17 77° E 23:38:47 10° N
BREEZE-M DEB (TANK) 4.3 23:24:42 10° WNW 23:35:49 84° SW 23:39:17 10° ESE
PAYLOAD B 4.5 23:31:04 10° SE 23:36:26 48° ENE 23:41:48 10° N
Cosmos 1092 Rocket 4.4 23:31:26 10° N 23:37:24 41° ENE 23:43:20 10° SE
USA 267 4.0 23:31:36 10° NE 23:37:42 44° NNW 23:43:47 10° W
Cosmos 1606 3.1 23:34:11 10° SSW 23:37:53 63° W 23:41:39 10° N
Cosmos 1939 Rocket 2.9 23:35:09 10° SSE 23:39:17 88° WSW 23:43:25 10° NNW
USA 307 4.3 23:36:41 10° W 23:40:26 29° NNW 23:43:57 11° NE
CORIOLIS 4.1 23:39:14 10° SSE 23:44:36 81° ENE 23:50:02 10° NNW
Sich 1 4.0 23:41:34 10° NNE 23:45:04 24° ENE 23:48:33 10° SE
ATLAS CENTAUR R/B 3.7 23:46:07 10° W 23:49:08 19° NW 23:52:19 10° N
USA 229 DEB 4.2 23:42:44 10° NNW 23:49:45 47° NE 23:57:12 10° ESE
USA 229 4.2 23:42:49 10° NNW 23:49:51 47° NE 23:57:16 10° ESE
SMAP 3.3 23:45:40 10° S 23:50:19 76° WSW 23:55:00 10° NNW
Cosmos 2221 3.2 23:48:29 10° SSW 23:52:39 56° W 23:56:53 10° N
Cosmos 2034 Rocket 4.0 23:46:47 10° S 23:52:57 90° E 23:59:09 10° N
Cosmos 1833 Rocket 2.9 23:48:35 10° S 23:53:56 48° ESE 23:58:46 13° NE
Meteor 1-20 Rocket 4.3 23:48:27 10° N 23:54:13 61° ENE 23:59:58 10° SSE
Landsat 5 4.4 23:53:31 18° NE 23:55:37 27° E 23:59:04 10° SSE
ISS -1.8 23:53:17 10° NW 23:55:42 18° N 23:56:51 15° NNE
